TimeMST,TemperatureF,Dew PointF,Humidity,Sea Level PressureIn,VisibilityMPH,Wind Direction,Wind SpeedMPH,Gust SpeedMPH,PrecipitationIn,Events,Conditions,WindDirDegrees,DateUTC
12:53 AM,36.0,12.0,37,30.16,10.0,NNW,6.9,-,N/A,,Clear,340,2012-12-05 07:53:00
1:53 AM,37.9,12.0,35,30.13,10.0,NNW,5.8,-,N/A,,Clear,340,2012-12-05 08:53:00
2:53 AM,39.0,10.0,30,30.11,10.0,NNE,6.9,-,N/A,,Clear,30,2012-12-05 09:53:00
3:53 AM,42.1,9.0,26,30.10,10.0,NNW,3.5,-,N/A,,Clear,330,2012-12-05 10:53:00
4:53 AM,41.0,12.0,31,30.12,10.0,West,4.6,-,N/A,,Clear,270,2012-12-05 11:53:00
5:53 AM,39.9,12.0,32,30.16,10.0,West,4.6,-,N/A,,Clear,260,2012-12-05 12:53:00
7:53 AM,45.0,12.9,27,30.14,10.0,WNW,3.5,-,N/A,,Clear,290,2012-12-05 14:53:00
8:53 AM,50.0,15.1,25,30.11,10.0,Calm,Calm,-,N/A,,Clear,0,2012-12-05 15:53:00
9:53 AM,55.9,12.0,18,30.08,10.0,Calm,Calm,-,N/A,,Clear,0,2012-12-05 16:53:00
10:53 AM,60.1,15.1,17,30.03,10.0,Calm,Calm,-,N/A,,Clear,0,2012-12-05 17:53:00
11:53 AM,63.0,17.1,17,29.99,10.0,South,5.8,-,N/A,,Clear,170,2012-12-05 18:53:00
12:53 PM,66.0,19.0,17,29.92,10.0,SSE,8.1,-,N/A,,Clear,160,2012-12-05 19:53:00
1:53 PM,68.0,16.0,14,29.86,10.0,West,10.4,-,N/A,,Clear,280,2012-12-05 20:53:00
2:53 PM,68.0,16.0,14,29.84,10.0,WSW,18.4,-,N/A,,Clear,240,2012-12-05 21:53:00
3:53 PM,63.0,17.1,17,29.84,10.0,WSW,12.7,-,N/A,,Clear,240,2012-12-05 22:53:00
4:53 PM,55.0,17.1,23,29.89,10.0,WSW,10.4,-,N/A,,Clear,250,2012-12-05 23:53:00
5:53 PM,51.1,16.0,25,29.91,10.0,WSW,11.5,-,N/A,,Clear,240,2012-12-06 00:53:00
6:53 PM,50.0,16.0,26,29.93,10.0,WSW,11.5,-,N/A,,Clear,240,2012-12-06 01:53:00
7:53 PM,50.0,16.0,26,29.89,10.0,SW,9.2,-,N/A,,Clear,220,2012-12-06 02:53:00
8:53 PM,43.0,16.0,34,29.88,10.0,SSW,11.5,-,N/A,,Clear,200,2012-12-06 03:53:00
9:53 PM,42.1,16.0,35,29.85,10.0,SSW,10.4,-,N/A,,Clear,200,2012-12-06 04:53:00
10:53 PM,45.0,15.1,30,29.80,10.0,SSW,8.1,-,N/A,,Clear,200,2012-12-06 05:53:00
11:53 PM,43.0,16.0,34,29.78,10.0,South,9.2,-,N/A,,Clear,170,2012-12-06 06:53:00